SAZN Airport Information

Runway Information
Runway 9 Length 8432 ft width 148 ft
Elevation 895 ft Threshold 0 ft Heading 90
Runway 27 Length 8432 ft Width 148 ft
Elevation 886 ft Threshold 0 ft Heading 270
Airport Frequencies
Type TWR Name NEUQUEN TW Frequency 119.3 MHZ
Airport Navaids
Type NDB Name Presidente Peron Frequency 307 KHZ
Type VOR-DME Name Neuquen Frequency 116700 KHZ
Type NDB Name Presidente Peron Frequency 332 KHZ
Airport Weather Information & NOTAM
ADDS - METARS form results

(0134 UTC 19 August 2018)
 
METAR text: SAZN 190100Z 23009KT CAVOK 07/M05 Q1031
Conditions at: SAZN (NEUQUEN AIRPORT , AR) observed 0100 UTC 19 August 2018
Temperature: 7.0°C (45°F)
Dewpoint: -5.0°C (23°F) [RH = 42%]
Pressure (altimeter): 30.44 inches Hg (1031.0 mb)
Winds: from the SW (230 degrees) at 10 MPH (9 knots; 4.7 m/s)
Visibility: 6 or more miles (10+ km)
Ceiling: ceiling and visibility are OK
Clouds: unknown
Weather: no significant weather observed at this time